WEINA 1B (43279 NORAD) Tracking and Keplerian Element Data

This shows tracking and keplerian element data for the satellite.

Feedback or suggestion? Click here.




ElementValue
Catalog43279
NameWEINA 1B
Epoch Orbit402
Epoch Day130.20688378
Epoch Year2018
RAAN135.5784
Inclination63.413
Eccentricity0.0005704
Argument of Perigee48.1627
Mean Anonmoly311.9885
Mean Motion13.44578485
Decay Rate-3.1E-07
L11 43279U 18034E 18130.20688378 -.00000031 00000-0 10000-3 0 9995
L22 43279 63.4130 135.5784 0005704 48.1627 311.9885 13.44578485 4021

Live tracking and technical data element details for WEINA 1B (NORAD 43279). WEINA 1B can be tracked NOW for your location showing map with azimuth and elevation plus other details from your city location.

Track the satellite on the map from your city or location and see movement details for azimuth, elevation, latitude, longitude, range, height, and movement on the map or in text.







IsCatalogInMostPopularTable: catalog: 43279, numindb: 62
Update: records affected: 1



GetName: 43279 WEINA 1B

Hit Count: updated at: Fri, 16 Nov 2018 02:53:55 GMT